Location: *
(58.4167°N, 22.5000°E)
Time: 10:52:05
(UTC+00:00)

Cosmos 1544 Rocket - Pass Details

Date: 22 September 2019
Orbit: 604 x 632 km, 82.5° (Epoch: 15 October)

Event Time Altitude Azimuth Distance (km) Brightness Sun altitude
Rises 18:07:00 0° 177° (S) 2,918 6.8 -13.1°
Reaches altitude 10° 18:09:16 10° 172° (S) 2,013 5.9 -13.4°
Maximum altitude 18:13:36 54° 96° (E) 774 3.7 -13.9°
Drops below altitude 10° 18:17:59 10° 20° (NNE) 2,020 6.3 -14.4°
Sets 18:20:15 0° 16° (NNE) 2,928 7.2 -14.7°
